Weather in Nizhniy Arkhyz

Russia / Karachay-Cherkess Republic     43°40′39″N   41°27′27″E
temp.,
°C
wind,
m/s
gust,
m/s
humid.,
%
clouds,
%
prec.,
mm/h
press.,
hPa
HPBL,
m
14 may, fri
fri1400:00+10ssw45400 0.0 101655
03:00+10ssw45394 0.0 101552
06:00+11ssw44522 0.0 101558
09:00+22e12291 0.0 1013557
12:00+25ne34296 0.0 10122035
15:00+25ne24292 0.0 10112174
18:00+20s22596 0.0 101371
21:00+13ssw56524 0.0 101577
15 may, sat
sat1500:00+12ssw464936 0.0 101670
03:00+11ssw445239 0.0 101651
06:00+12s34520 0.0 101651
09:00+21ne22311 0.0 1014613
12:00+23nne43396 0.0 10141419
15:00+22nne43513 0.1 10131425
18:00+17nne238433 3.4 1015136
21:00+12ssw32915 5.6 101640
16 may, sun
sun1600:00+10ssw33853 0.0 101443
03:00+10ssw337934 0.0 101437
06:00+12ssw336912 0.0 101247
09:00+20nne2145100 0.0 1010551
12:00+23nne32425 0.0 10081126
15:00+23nne324994 0.0 10071368
18:00+19e1382100 2.4 1007121
21:00+12ssw3489100 2.5 100846
17 may, mon
mon1700:00+11ssw44782 0.0 100851
03:00+13ssw46653 0.0 100870
06:00+14ssw45665 0.0 100770
09:00+24n113482 0.0 10061127
12:00+24nne434196 0.0 10061620
15:00+17n468177 2.5 1010558
18:00+15ese117921 1.0 1011431
21:00+11s2194100 2.0 101320
18 may, tue
tue1800:00+10ssw229048 0.9 101219
03:00+9ssw228872 1.5 101219
06:00+10ne109782 6.8 101437
09:00+13n3382100 7.2 1014706
12:00+12ene2286100 0.7 1015430
15:00+15ne117823 2.1 1015638
18:00+13n119078 3.0 1016196
21:00+11ssw119473 4.6 101715